| time (UTC) | temp F | wind direction | speed knots | gust knots | rain 1hr in | rain 24hr in | rain mn in | humidity % | barometer mb |
| 20260905195324 | 50 | 270 | 14.8 | 26.1 | 0.00 | 0.00 | 0.00 | 74 | 879.5 |
| 20260905195123 | 50 | 272 | 12.2 | 21.7 | 0.00 | 0.00 | 0.00 | 74 | 879.5 |
| 20260905194923 | 50 | 263 | 13.0 | 20.0 | 0.00 | 0.00 | 0.00 | 74 | 879.5 |
| 20260905194723 | 50 | 269 | 13.9 | 21.7 | 0.00 | 0.00 | 0.00 | 74 | 879.5 |
| 20260905194521 | 50 | 266 | 14.8 | 21.7 | 0.00 | 0.00 | 0.00 | 74 | 879.5 |
| 20260905194321 | 50 | 261 | 12.2 | 20.9 | 0.00 | 0.00 | 0.00 | 74 | 879.4 |
| 20260905194121 | 50 | 269 | 12.2 | 23.5 | 0.00 | 0.00 | 0.00 | 74 | 879.4 |
| 20260905193921 | 50 | 267 | 13.0 | 23.5 | 0.00 | 0.00 | 0.00 | 74 | 879.4 |
| 20260905193722 | 50 | 278 | 13.0 | 21.7 | 0.00 | 0.00 | 0.00 | 74 | 879.4 |
| 20260905193519 | 50 | 278 | 14.8 | 33.9 | 0.00 | 0.00 | 0.00 | 74 | 879.4 |
| 20260905193319 | 50 | 279 | 13.0 | 33.9 | 0.00 | 0.00 | 0.00 | 74 | 879.3 |
| 20260905193119 | 50 | 278 | 14.8 | 21.7 | 0.00 | 0.00 | 0.00 | 74 | 879.3 |
| 20260905192920 | 50 | 273 | 14.8 | 24.3 | 0.00 | 0.00 | 0.00 | 74 | 879.3 |
| 20260905192719 | 50 | 271 | 15.6 | 24.3 | 0.00 | 0.00 | 0.00 | 74 | 879.3 |
| 20260905192517 | 50 | 277 | 14.8 | 21.7 | 0.00 | 0.00 | 0.00 | 74 | 879.3 |
| 20260905192317 | 50 | 268 | 14.8 | 21.7 | 0.00 | 0.00 | 0.00 | 74 | 879.2 |
| 20260905192117 | 50 | 270 | 15.6 | 24.3 | 0.00 | 0.00 | 0.00 | 74 | 879.2 |
| 20260905191917 | 50 | 273 | 14.8 | 20.9 | 0.00 | 0.00 | 0.00 | 74 | 879.2 |
| 20260905191717 | 50 | 270 | 12.2 | 17.4 | 0.00 | 0.00 | 0.00 | 74 | 879.3 |
| 20260905191517 | 50 | 270 | 12.2 | 17.4 | 0.00 | 0.00 | 0.00 | 74 | 879.3 |
| 20260905191317 | 50 | 269 | 14.8 | 20.9 | 0.00 | 0.00 | 0.00 | 74 | 879.3 |
| 20260905191117 | 50 | 270 | 14.8 | 20.9 | 0.00 | 0.00 | 0.00 | 74 | 879.3 |
| 20260905190916 | 50 | 272 | 13.9 | 22.6 | 0.00 | 0.00 | 0.00 | 74 | 879.3 |
| 20260905190716 | 50 | 271 | 14.8 | 22.6 | 0.00 | 0.00 | 0.00 | 74 | 879.3 |
| 20260905190514 | 50 | 267 | 13.0 | 17.4 | 0.00 | 0.00 | 0.00 | 74 | 879.3 |
| 20260905190314 | 50 | 268 | 14.8 | 21.7 | 0.00 | 0.00 | 0.00 | 74 | 879.3 |
| 20260905190114 | 50 | 273 | 13.9 | 21.7 | 0.00 | 0.00 | 0.00 | 74 | 879.2 |
| 20260905185915 | 50 | 277 | 13.9 | 22.6 | 0.00 | 0.00 | 0.00 | 74 | 879.2 |
| 20260905185715 | 50 | 273 | 14.8 | 19.1 | 0.00 | 0.00 | 0.00 | 74 | 879.3 |
| 20260905185515 | 50 | 274 | 14.8 | 21.7 | 0.00 | 0.00 | 0.00 | 74 | 879.2 |
| 20260905185315 | 50 | 277 | 13.9 | 21.7 | 0.00 | 0.00 | 0.00 | 74 | 879.2 |
| 20260905185115 | 50 | 274 | 13.9 | 27.8 | 0.00 | 0.00 | 0.00 | 74 | 879.2 |
| 20260905184915 | 50 | 275 | 13.9 | 20.9 | 0.00 | 0.00 | 0.00 | 74 | 879.2 |
| 20260905184715 | 50 | 261 | 13.9 | 20.9 | 0.00 | 0.00 | 0.00 | 74 | 879.1 |
| 20260905184513 | 50 | 265 | 11.3 | 20.9 | 0.00 | 0.00 | 0.00 | 74 | 879.1 |
| 20260905184313 | 50 | 270 | 13.0 | 20.9 | 0.00 | 0.00 | 0.00 | 74 | 879.1 |
| 20260905184113 | 50 | 275 | 14.8 | 20.9 | 0.00 | 0.00 | 0.00 | 74 | 879.0 |
| 20260905183913 | 50 | 274 | 17.4 | 24.3 | 0.00 | 0.00 | 0.00 | 74 | 879.0 |
| 20260905183714 | 50 | 266 | 17.4 | 26.1 | 0.00 | 0.00 | 0.00 | 74 | 879.0 |
| 20260905183513 | 50 | 259 | 16.5 | 26.1 | 0.00 | 0.00 | 0.00 | 74 | 879.0 |
| 20260905183313 | 50 | 266 | 15.6 | 21.7 | 0.00 | 0.00 | 0.00 | 74 | 879.0 |
| 20260905183113 | 50 | 270 | 15.6 | 21.7 | 0.00 | 0.00 | 0.00 | 74 | 879.0 |
| 20260905182913 | 51 | 270 | 17.4 | 26.9 | 0.00 | 0.00 | 0.00 | 74 | 879.0 |
| 20260905182711 | 51 | 268 | 14.8 | 26.1 | 0.00 | 0.00 | 0.00 | 74 | 879.1 |
| 20260905182600 | 51 | 268 | 13.9 | 23.5 | 0.00 | 0.00 | 0.00 | 74 | 879.1 |
| 20260905182509 | 51 | 268 | 13.9 | 23.5 | 0.00 | 0.00 | 0.00 | 74 | 879.1 |
| 20260905182309 | 51 | 269 | 13.9 | 25.2 | 0.00 | 0.00 | 0.00 | 74 | 879.1 |
| 20260905182109 | 51 | 271 | 14.8 | 25.2 | 0.00 | 0.00 | 0.00 | 74 | 879.0 |
| 20260905181909 | 51 | 263 | 16.5 | 25.2 | 0.00 | 0.00 | 0.00 | 74 | 879.0 |
| 20260905181709 | 51 | 258 | 17.4 | 23.5 | 0.00 | 0.00 | 0.00 | 74 | 879.0 |
| 20260905181459 | 51 | 267 | 16.5 | 26.1 | 0.00 | 0.00 | 0.00 | 74 | 879.0 |
| 20260905181259 | 51 | 270 | 15.6 | 28.7 | 0.00 | 0.00 | 0.00 | 74 | 879.0 |
| 20260905181059 | 51 | 276 | 15.6 | 28.7 | 0.00 | 0.00 | 0.00 | 75 | 879.0 |
| 20260905180859 | 50 | 267 | 13.9 | 20.9 | 0.00 | 0.00 | 0.00 | 75 | 879.0 |
| 20260905180659 | 50 | 267 | 14.8 | 20.9 | 0.00 | 0.00 | 0.00 | 75 | 879.0 |
| 20260905180457 | 50 | 254 | 13.9 | 23.5 | 0.00 | 0.00 | 0.00 | 75 | 879.0 |
| 20260905180257 | 50 | 258 | 13.9 | 23.5 | 0.00 | 0.00 | 0.00 | 75 | 879.0 |
| 20260905180057 | 50 | 265 | 11.3 | 16.5 | 0.00 | 0.00 | 0.00 | 75 | 879.0 |
| 20260905175857 | 50 | 265 | 13.9 | 20.9 | 0.00 | 0.00 | 0.00 | 75 | 879.0 |
| 20260905175658 | 50 | 259 | 12.2 | 20.9 | 0.00 | 0.00 | 0.00 | 75 | 879.0 |
| 20260905175455 | 51 | 262 | 11.3 | 16.5 | 0.00 | 0.00 | 0.00 | 75 | 879.0 |
| 20260905175256 | 51 | 267 | 12.2 | 17.4 | 0.00 | 0.00 | 0.00 | 75 | 879.0 |
| 20260905175056 | 51 | 263 | 12.2 | 20.0 | 0.00 | 0.00 | 0.00 | 75 | 878.9 |
| 20260905175032 | 51 | 263 | 13.9 | 24.3 | 0.00 | 0.00 | 0.00 | 75 | 878.9 |
| 20260905174856 | 51 | 263 | 13.9 | 24.3 | 0.00 | 0.00 | 0.00 | 75 | 878.9 |
| 20260905174655 | 51 | 260 | 14.8 | 22.6 | 0.00 | 0.00 | 0.00 | 75 | 878.8 |
| 20260905174453 | 51 | 265 | 13.0 | 22.6 | 0.00 | 0.00 | 0.00 | 74 | 878.8 |
| 20260905174253 | 51 | 258 | 12.2 | 19.1 | 0.00 | 0.00 | 0.00 | 74 | 878.8 |
| 20260905174053 | 51 | 264 | 14.8 | 20.9 | 0.00 | 0.00 | 0.00 | 74 | 878.8 |
| 20260905173853 | 51 | 266 | 13.9 | 20.9 | 0.00 | 0.00 | 0.00 | 74 | 878.8 |
| 20260905173654 | 0 | 269 | 11.3 | 14.8 | 0.00 | 0.00 | 0.00 | 74 | 878.8 |
| 20260905173453 | 51 | 270 | 13.9 | 20.0 | 0.00 | 0.00 | 0.00 | 74 | 878.7 |
| 20260905173253 | 51 | 270 | 14.8 | 20.0 | 0.00 | 0.00 | 0.00 | 74 | 878.7 |
| 20260905173053 | 51 | 266 | 13.9 | 17.4 | 0.00 | 0.00 | 0.00 | 74 | 878.7 |
| 20260905172853 | 51 | 268 | 13.9 | 25.2 | 0.00 | 0.00 | 0.00 | 74 | 878.7 |
| 20260905172653 | 51 | 272 | 13.9 | 25.2 | 0.00 | 0.00 | 0.00 | 74 | 878.7 |
| 20260905172451 | 51 | 270 | 14.8 | 24.3 | 0.00 | 0.00 | 0.00 | 74 | 878.7 |
| 20260905172251 | 51 | 271 | 14.8 | 24.3 | 0.00 | 0.00 | 0.00 | 74 | 878.7 |
| 20260905172051 | 51 | 267 | 15.6 | 21.7 | 0.00 | 0.00 | 0.00 | 74 | 878.7 |
| 20260905171847 | 51 | 271 | 13.9 | 21.7 | 0.00 | 0.00 | 0.00 | 74 | 878.7 |
| 20260905171647 | 51 | 269 | 14.8 | 20.0 | 0.00 | 0.00 | 0.00 | 74 | 878.6 |
| 20260905171247 | 51 | 276 | 14.8 | 20.0 | 0.00 | 0.00 | 0.00 | 74 | 878.6 |
| 20260905171047 | 51 | 266 | 14.8 | 21.7 | 0.00 | 0.00 | 0.00 | 74 | 878.6 |
| 20260905170848 | 51 | 263 | 13.9 | 21.7 | 0.00 | 0.00 | 0.00 | 74 | 878.6 |
| 20260905170647 | 51 | 263 | 13.9 | 20.9 | 0.00 | 0.00 | 0.00 | 74 | 878.6 |
| 20260905170445 | 51 | 270 | 13.9 | 20.9 | 0.00 | 0.00 | 0.00 | 74 | 878.6 |
| 20260905170245 | 51 | 270 | 14.8 | 21.7 | 0.00 | 0.00 | 0.00 | 74 | 878.5 |
| 20260905170045 | 51 | 269 | 15.6 | 27.8 | 0.00 | 0.00 | 0.00 | 74 | 878.5 |
| 20260905165846 | 51 | 259 | 16.5 | 24.3 | 0.00 | 0.00 | 0.00 | 74 | 878.5 |
| 20260905165646 | 51 | 263 | 17.4 | 24.3 | 0.00 | 0.00 | 0.00 | 74 | 878.4 |
| 20260905165446 | 51 | 261 | 17.4 | 24.3 | 0.00 | 0.00 | 0.00 | 74 | 878.4 |
| 20260905165246 | 51 | 264 | 14.8 | 22.6 | 0.00 | 0.00 | 0.00 | 74 | 878.3 |
| 20260905165045 | 51 | 258 | 14.8 | 22.6 | 0.00 | 0.00 | 0.00 | 74 | 878.3 |
| 20260905164845 | 51 | 257 | 14.8 | 25.2 | 0.00 | 0.00 | 0.00 | 74 | 878.3 |
| 20260905164645 | 51 | 253 | 13.9 | 19.1 | 0.00 | 0.00 | 0.00 | 74 | 878.3 |
| 20260905164443 | 52 | 268 | 12.2 | 19.1 | 0.00 | 0.00 | 0.00 | 74 | 878.4 |
| 20260905164243 | 52 | 275 | 13.0 | 19.1 | 0.00 | 0.00 | 0.00 | 74 | 878.3 |
| 20260905164043 | 52 | 269 | 14.8 | 25.2 | 0.00 | 0.00 | 0.00 | 74 | 878.3 |
| 20260905163843 | 52 | 267 | 14.8 | 25.2 | 0.00 | 0.00 | 0.00 | 74 | 878.3 |
| 20260905163643 | 52 | 270 | 15.6 | 24.3 | 0.00 | 0.00 | 0.00 | 74 | 878.3 |
| 20260905163443 | 53 | 264 | 14.8 | 24.3 | 0.00 | 0.00 | 0.00 | 74 | 878.3 |
| 20260905163243 | 53 | 266 | 15.6 | 23.5 | 0.00 | 0.00 | 0.00 | 74 | 878.2 |
| 20260905163043 | 53 | 268 | 14.8 | 20.9 | 0.00 | 0.00 | 0.00 | 74 | 878.1 |
| 20260905162843 | 53 | 269 | 16.5 | 21.7 | 0.00 | 0.00 | 0.00 | 74 | 878.1 |
| 20260905162643 | 53 | 264 | 18.2 | 29.5 | 0.00 | 0.00 | 0.00 | 74 | 878.1 |
| 20260905162441 | 53 | 263 | 14.8 | 25.2 | 0.00 | 0.00 | 0.00 | 74 | 878.1 |
| 20260905162241 | 53 | 269 | 14.8 | 20.9 | 0.00 | 0.00 | 0.00 | 74 | 878.1 |
| 20260905162042 | 53 | 267 | 15.6 | 20.9 | 0.00 | 0.00 | 0.00 | 74 | 878.1 |
| 20260905161841 | 53 | 261 | 14.8 | 20.0 | 0.00 | 0.00 | 0.00 | 74 | 878.0 |
| 20260905161641 | 53 | 263 | 17.4 | 24.3 | 0.00 | 0.00 | 0.00 | 74 | 878.0 |
| 20260905161441 | 53 | 259 | 19.1 | 26.1 | 0.00 | 0.00 | 0.00 | 74 | 877.9 |
| 20260905161241 | 53 | 257 | 18.2 | 26.1 | 0.00 | 0.00 | 0.00 | 74 | 877.9 |
| 20260905161039 | 53 | 253 | 16.5 | 26.1 | 0.00 | 0.00 | 0.00 | 74 | 878.0 |
| 20260905160839 | 53 | 261 | 13.9 | 21.7 | 0.00 | 0.00 | 0.00 | 74 | 878.0 |
| 20260905160639 | 54 | 261 | 12.2 | 20.0 | 0.00 | 0.00 | 0.00 | 74 | 878.1 |
| 20260905160437 | 54 | 258 | 9.6 | 15.6 | 0.00 | 0.00 | 0.00 | 74 | 878.1 |
| 20260905160237 | 54 | 248 | 13.9 | 22.6 | 0.00 | 0.00 | 0.00 | 74 | 878.0 |
| 20260905160037 | 54 | 248 | 16.5 | 26.9 | 0.00 | 0.00 | 0.00 | 74 | 878.0 |
| 20260905155837 | 54 | 251 | 13.9 | 26.9 | 0.00 | 0.00 | 0.00 | 74 | 878.0 |
| 20260905155638 | 54 | 257 | 12.2 | 21.7 | 0.00 | 0.00 | 0.00 | 74 | 878.0 |
| 20260905155436 | 54 | 256 | 12.2 | 20.0 | 0.00 | 0.00 | 0.00 | 74 | 877.9 |
| 20260905155236 | 54 | 260 | 14.8 | 23.5 | 0.00 | 0.00 | 0.00 | 74 | 877.9 |
| 20260905155036 | 54 | 264 | 14.8 | 20.9 | 0.00 | 0.00 | 0.00 | 74 | 877.9 |
| 20260905154836 | 54 | 258 | 14.8 | 20.9 | 0.00 | 0.00 | 0.00 | 74 | 877.9 |
| 20260905154636 | 54 | 260 | 16.5 | 24.3 | 0.00 | 0.00 | 0.00 | 74 | 877.9 |
| 20260905154425 | 54 | 256 | 16.5 | 23.5 | 0.00 | 0.00 | 0.00 | 74 | 877.9 |
| 20260905154225 | 54 | 261 | 14.8 | 24.3 | 0.00 | 0.00 | 0.00 | 75 | 877.8 |
| 20260905154025 | 54 | 261 | 15.6 | 26.1 | 0.00 | 0.00 | 0.00 | 75 | 877.9 |
| 20260905153825 | 53 | 262 | 14.8 | 20.0 | 0.00 | 0.00 | 0.00 | 75 | 877.8 |
| 20260905153625 | 53 | 265 | 15.6 | 26.1 | 0.00 | 0.00 | 0.00 | 75 | 877.9 |
| 20260905153425 | 53 | 267 | 14.8 | 26.1 | 0.00 | 0.00 | 0.00 | 76 | 877.9 |
| 20260905153225 | 53 | 261 | 13.9 | 20.9 | 0.00 | 0.00 | 0.00 | 76 | 877.9 |
| 20260905153025 | 53 | 256 | 16.5 | 22.6 | 0.00 | 0.00 | 0.00 | 76 | 877.9 |
| 20260905152825 | 53 | 258 | 15.6 | 22.6 | 0.00 | 0.00 | 0.00 | 76 | 877.8 |
| 20260905152625 | 53 | 266 | 13.9 | 20.9 | 0.00 | 0.00 | 0.00 | 76 | 877.8 |
| 20260905152423 | 54 | 262 | 15.6 | 22.6 | 0.00 | 0.00 | 0.00 | 75 | 877.8 |
| 20260905152223 | 54 | 262 | 13.0 | 20.9 | 0.00 | 0.00 | 0.00 | 76 | 877.8 |
| 20260905152023 | 54 | 255 | 13.0 | 19.1 | 0.00 | 0.00 | 0.00 | 75 | 877.7 |
| 20260905151823 | 0 | 263 | 14.8 | 23.5 | 0.00 | 0.00 | 0.00 | ||
| 20260905151623 | 54 | 257 | 13.9 | 17.4 | 0.00 | 0.00 | 0.00 | 76 | 877.8 |
| 20260905151423 | 54 | 250 | 14.8 | 22.6 | 0.00 | 0.00 | 0.00 | 76 | 877.7 |
| 20260905151222 | 54 | 256 | 15.6 | 20.9 | 0.00 | 0.00 | 0.00 | 75 | 877.8 |
| 20260905151022 | 54 | 265 | 12.2 | 20.0 | 0.00 | 0.00 | 0.00 | 76 | 877.8 |
| 20260905150822 | 54 | 268 | 11.3 | 16.5 | 0.00 | 0.00 | 0.00 | 76 | 877.8 |
| 20260905150622 | 54 | 264 | 13.9 | 17.4 | 0.00 | 0.00 | 0.00 | 76 | 877.8 |
| 20260905150420 | 54 | 262 | 13.9 | 21.7 | 0.00 | 0.00 | 0.00 | 76 | 877.8 |
| 20260905150218 | 54 | 250 | 13.9 | 23.5 | 0.00 | 0.00 | 0.00 | 76 | 877.8 |
| 20260905150018 | 54 | 256 | 13.9 | 26.1 | 0.00 | 0.00 | 0.00 | 76 | 877.7 |
| 20260905145818 | 54 | 256 | 15.6 | 26.1 | 0.00 | 0.00 | 0.00 | 77 | 877.7 |
| 20260905145618 | 54 | 261 | 13.0 | 22.6 | 0.00 | 0.00 | 0.00 | 77 | 877.7 |
| 20260905145418 | 53 | 263 | 13.0 | 22.6 | 0.00 | 0.00 | 0.00 | 77 | 877.8 |
| 20260905145218 | 53 | 262 | 13.9 | 20.0 | 0.00 | 0.00 | 0.00 | 77 | 877.7 |
| 20260905145018 | 53 | 257 | 13.9 | 19.1 | 0.00 | 0.00 | 0.00 | 77 | 877.7 |
| 20260905144818 | 53 | 252 | 12.2 | 19.1 | 0.00 | 0.00 | 0.00 | 77 | 877.8 |
| 20260905144618 | 53 | 249 | 14.8 | 22.6 | 0.00 | 0.00 | 0.00 | 77 | 877.7 |
| 20260905144416 | 53 | 253 | 17.4 | 22.6 | 0.00 | 0.00 | 0.00 | 77 | 877.6 |
| 20260905144216 | 53 | 265 | 13.9 | 21.7 | 0.00 | 0.00 | 0.00 | 77 | 877.7 |
| 20260905144015 | 53 | 255 | 13.9 | 24.3 | 0.00 | 0.00 | 0.00 | 77 | 877.7 |
| 20260905143815 | 53 | 245 | 14.8 | 24.3 | 0.00 | 0.00 | 0.00 | 78 | 877.7 |
| 20260905143615 | 53 | 246 | 11.3 | 16.5 | 0.00 | 0.00 | 0.00 | 78 | 877.8 |
| 20260905143415 | 53 | 241 | 14.8 | 21.7 | 0.00 | 0.00 | 0.00 | 78 | 877.8 |
| 20260905143215 | 53 | 247 | 12.2 | 21.7 | 0.00 | 0.00 | 0.00 | 78 | 877.8 |
| 20260905143015 | 52 | 255 | 11.3 | 21.7 | 0.00 | 0.00 | 0.00 | 78 | 877.8 |
| 20260905142815 | 52 | 257 | 12.2 | 21.7 | 0.00 | 0.00 | 0.00 | 78 | 877.8 |
| 20260905142615 | 53 | 250 | 15.6 | 20.0 | 0.00 | 0.00 | 0.00 | 78 | 877.8 |
| 20260905142413 | 53 | 255 | 14.8 | 20.0 | 0.00 | 0.00 | 0.00 | 78 | 877.8 |
| 20260905142213 | 53 | 262 | 13.0 | 19.1 | 0.00 | 0.00 | 0.00 | 78 | 877.8 |
| 20260905142014 | 53 | 263 | 12.2 | 17.4 | 0.00 | 0.00 | 0.00 | 78 | 877.9 |
| 20260905141813 | 53 | 260 | 11.3 | 17.4 | 0.00 | 0.00 | 0.00 | 78 | 877.9 |
| 20260905141613 | 53 | 266 | 10.4 | 13.0 | 0.00 | 0.00 | 0.00 | 78 | 877.9 |
| 20260905141413 | 53 | 254 | 12.2 | 23.5 | 0.00 | 0.00 | 0.00 | 78 | 877.9 |
| 20260905141214 | 53 | 246 | 13.9 | 23.5 | 0.00 | 0.00 | 0.00 | 78 | 877.9 |
| 20260905141013 | 53 | 254 | 13.0 | 17.4 | 0.00 | 0.00 | 0.00 | 79 | 878.0 |
| 20260905140813 | 53 | 253 | 11.3 | 16.5 | 0.00 | 0.00 | 0.00 | 79 | 878.0 |
| 20260905140613 | 53 | 262 | 12.2 | 17.4 | 0.00 | 0.00 | 0.00 | 79 | 878.0 |
| 20260905140411 | 52 | 258 | 9.6 | 14.8 | 0.00 | 0.00 | 0.00 | 79 | 878.0 |
| 20260905140211 | 52 | 256 | 11.3 | 17.4 | 0.00 | 0.00 | 0.00 | 79 | 878.0 |
| 20260905140011 | 52 | 252 | 10.4 | 14.8 | 0.00 | 0.00 | 0.00 | 79 | 878.0 |
| 20260905135811 | 52 | 243 | 12.2 | 17.4 | 0.00 | 0.00 | 0.00 | 79 | 878.0 |
| 20260905135611 | 52 | 247 | 13.0 | 16.5 | 0.00 | 0.00 | 0.00 | 79 | 878.0 |
| 20260905135409 | 53 | 241 | 12.2 | 17.4 | 0.00 | 0.00 | 0.00 | 79 | 878.0 |
| 20260905135209 | 53 | 245 | 13.0 | 19.1 | 0.00 | 0.00 | 0.00 | 79 | 878.0 |
| 20260905135009 | 53 | 253 | 10.4 | 19.1 | 0.00 | 0.00 | 0.00 | 79 | 878.0 |
| 20260905134809 | 53 | 261 | 13.9 | 23.5 | 0.00 | 0.00 | 0.00 | 79 | 877.9 |
| 20260905134407 | 53 | 248 | 11.3 | 15.6 | 0.00 | 0.00 | 0.00 | 79 | 877.9 |
| 20260905134206 | 53 | 247 | 13.0 | 18.2 | 0.00 | 0.00 | 0.00 | 79 | 877.9 |
| 20260905134006 | 52 | 256 | 13.0 | 18.2 | 0.00 | 0.00 | 0.00 | 80 | 877.9 |
| 20260905133806 | 52 | 259 | 13.0 | 20.9 | 0.00 | 0.00 | 0.00 | 80 | 877.9 |
| 20260905133606 | 52 | 252 | 15.6 | 20.9 | 0.00 | 0.00 | 0.00 | 80 | 877.9 |
| 20260905133407 | 52 | 253 | 13.9 | 20.9 | 0.00 | 0.00 | 0.00 | 80 | 877.9 |
| 20260905133207 | 52 | 251 | 12.2 | 15.6 | 0.00 | 0.00 | 0.00 | 81 | 877.9 |
| 20260905133007 | 52 | 249 | 12.2 | 15.6 | 0.00 | 0.00 | 0.00 | 80 | 878.0 |
| 20260905132807 | 52 | 249 | 12.2 | 16.5 | 0.00 | 0.00 | 0.00 | 80 | 878.0 |
| 20260905132606 | 52 | 252 | 13.0 | 18.2 | 0.00 | 0.00 | 0.00 | 80 | 877.9 |
| 20260905132404 | 52 | 248 | 14.8 | 20.9 | 0.00 | 0.00 | 0.00 | 80 | 877.9 |
| 20260905132204 | 52 | 255 | 14.8 | 21.7 | 0.00 | 0.00 | 0.00 | 80 | 877.9 |
| 20260905132005 | 52 | 258 | 13.0 | 21.7 | 0.00 | 0.00 | 0.00 | 80 | 877.9 |
| 20260905131804 | 52 | 256 | 12.2 | 18.2 | 0.00 | 0.00 | 0.00 | 80 | 878.0 |
| 20260905131605 | 53 | 250 | 13.9 | 21.7 | 0.00 | 0.00 | 0.00 | 80 | 877.9 |
| 20260905131355 | 53 | 252 | 13.9 | 20.0 | 0.00 | 0.00 | 0.00 | 80 | 877.9 |
| 20260905131155 | 53 | 246 | 13.9 | 20.0 | 0.00 | 0.00 | 0.00 | 79 | 877.8 |
| 20260905130955 | 53 | 244 | 13.0 | 20.0 | 0.00 | 0.00 | 0.00 | 80 | 877.9 |
| 20260905130755 | 53 | 250 | 12.2 | 17.4 | 0.00 | 0.00 | 0.00 | 80 | 877.9 |
| 20260905130555 | 53 | 241 | 11.3 | 17.4 | 0.00 | 0.00 | 0.00 | 80 | 877.9 |
| 20260905130353 | 53 | 242 | 11.3 | 17.4 | 0.00 | 0.00 | 0.00 | 80 | 877.9 |
| 20260905130153 | 53 | 253 | 11.3 | 14.8 | 0.00 | 0.00 | 0.00 | 80 | 877.9 |
| 20260905125953 | 52 | 253 | 10.4 | 14.8 | 0.00 | 0.00 | 0.00 | 81 | 877.9 |
| 20260905125753 | 52 | 253 | 11.3 | 17.4 | 0.00 | 0.00 | 0.00 | 81 | 877.9 |
| 20260905125553 | 52 | 259 | 8.7 | 12.2 | 0.00 | 0.00 | 0.00 | 81 | 877.9 |
| 20260905125353 | 52 | 251 | 11.3 | 17.4 | 0.00 | 0.00 | 0.00 | 80 | 878.0 |
| 20260905125153 | 53 | 244 | 13.9 | 17.4 | 0.00 | 0.00 | 0.00 | 80 | 878.0 |
| 20260905124953 | 53 | 258 | 11.3 | 19.1 | 0.00 | 0.00 | 0.00 | 80 | 878.0 |
| 20260905124753 | 53 | 259 | 10.4 | 19.1 | 0.00 | 0.00 | 0.00 | 80 | 878.0 |
| 20260905124551 | 53 | 265 | 10.4 | 20.9 | 0.00 | 0.00 | 0.00 | 81 | 878.0 |
| 20260905124349 | 53 | 248 | 11.3 | 20.9 | 0.00 | 0.00 | 0.00 | 81 | 878.0 |
| 20260905124149 | 52 | 248 | 9.6 | 14.8 | 0.00 | 0.00 | 0.00 | 81 | 877.9 |
| 20260905123949 | 52 | 252 | 10.4 | 16.5 | 0.00 | 0.00 | 0.00 | 81 | 877.9 |
| 20260905123749 | 52 | 249 | 12.2 | 16.5 | 0.00 | 0.00 | 0.00 | 81 | 877.9 |
| 20260905123549 | 52 | 241 | 12.2 | 16.5 | 0.00 | 0.00 | 0.00 | 81 | 878.0 |
| 20260905123349 | 52 | 253 | 12.2 | 18.2 | 0.00 | 0.00 | 0.00 | 81 | 878.0 |
| 20260905123149 | 52 | 264 | 12.2 | 18.2 | 0.00 | 0.00 | 0.00 | 81 | 877.9 |
| 20260905122949 | 52 | 250 | 12.2 | 18.2 | 0.00 | 0.00 | 0.00 | 81 | 877.9 |
| 20260905122749 | 52 | 255 | 10.4 | 15.6 | 0.00 | 0.00 | 0.00 | 81 | 877.9 |
| 20260905122549 | 52 | 253 | 12.2 | 20.0 | 0.00 | 0.00 | 0.00 | 81 | 878.0 |
| 20260905122347 | 52 | 253 | 10.4 | 20.0 | 0.00 | 0.00 | 0.00 | 82 | 878.0 |
| 20260905122147 | 52 | 264 | 8.7 | 13.9 | 0.00 | 0.00 | 0.00 | 82 | 878.0 |
| 20260905121947 | 51 | 263 | 9.6 | 14.8 | 0.00 | 0.00 | 0.00 | 82 | 878.0 |
| 20260905121747 | 51 | 255 | 8.7 | 12.2 | 0.00 | 0.00 | 0.00 | 82 | 878.0 |
| 20260905121547 | 51 | 262 | 11.3 | 16.5 | 0.00 | 0.00 | 0.00 | 82 | 878.0 |
| 20260905121345 | 51 | 267 | 10.4 | 15.6 | 0.00 | 0.00 | 0.00 | 82 | 878.0 |
| 20260905121145 | 51 | 263 | 10.4 | 16.5 | 0.00 | 0.00 | 0.00 | 82 | 878.0 |
| 20260905120945 | 52 | 259 | 10.4 | 15.6 | 0.00 | 0.00 | 0.00 | 82 | 878.0 |
| 20260905120745 | 52 | 258 | 9.6 | 15.6 | 0.00 | 0.00 | 0.00 | 82 | 878.0 |
| 20260905120545 | 52 | 245 | 11.3 | 14.8 | 0.00 | 0.00 | 0.00 | 82 | 878.0 |
| 20260905120343 | 52 | 252 | 12.2 | 16.5 | 0.00 | 0.00 | 0.00 | 82 | 878.0 |
| 20260905120143 | 52 | 265 | 7.8 | 16.5 | 0.00 | 0.00 | 0.00 | 82 | 878.0 |
| 20260905115943 | 52 | 258 | 7.0 | 10.4 | 0.00 | 0.00 | 0.00 | 82 | 878.0 |
| 20260905115743 | 52 | 243 | 8.7 | 16.5 | 0.00 | 0.00 | 0.00 | 82 | 878.0 |
| 20260905115543 | 52 | 273 | 7.8 | 16.5 | 0.00 | 0.00 | 0.00 | 82 | 878.0 |
| 20260905115343 | 52 | 266 | 8.7 | 17.4 | 0.00 | 0.00 | 0.00 | 82 | 878.0 |
| 20260905115218 | 52 | 257 | 7.8 | 17.4 | 0.00 | 0.00 | 0.00 | 82 | 878.1 |
| 20260905115144 | 52 | 257 | 7.8 | 17.4 | 0.00 | 0.00 | 0.00 | 82 | 878.1 |
| 20260905114944 | 52 | 259 | 6.1 | 11.3 | 0.00 | 0.00 | 0.00 | 82 | 878.0 |
| 20260905114744 | 52 | 255 | 10.4 | 16.5 | 0.00 | 0.00 | 0.00 | 82 | 877.9 |
| 20260905114544 | 52 | 250 | 9.6 | 16.5 | 0.00 | 0.00 | 0.00 | 82 | 877.9 |
| 20260905114342 | 52 | 253 | 8.7 | 12.2 | 0.00 | 0.00 | 0.00 | 82 | 878.0 |
| 20260905114142 | 52 | 248 | 8.7 | 12.2 | 0.00 | 0.00 | 0.00 | 82 | 878.0 |
| 20260905113942 | 52 | 251 | 10.4 | 17.4 | 0.00 | 0.00 | 0.00 | 82 | 878.0 |
| 20260905113740 | 52 | 253 | 9.6 | 14.8 | 0.00 | 0.00 | 0.00 | 83 | 877.9 |
| 20260905113540 | 51 | 253 | 9.6 | 15.6 | 0.00 | 0.00 | 0.00 | 83 | 878.0 |
| 20260905113340 | 51 | 253 | 8.7 | 17.4 | 0.00 | 0.00 | 0.00 | 83 | 878.0 |
| 20260905113140 | 51 | 256 | 6.1 | 11.3 | 0.00 | 0.00 | 0.00 | 83 | 878.0 |
| 20260905112940 | 51 | 256 | 9.6 | 16.5 | 0.00 | 0.00 | 0.00 | 83 | 877.9 |
| 20260905112740 | 51 | 258 | 7.8 | 12.2 | 0.00 | 0.00 | 0.00 | 83 | 877.9 |
| 20260905112540 | 51 | 248 | 8.7 | 13.9 | 0.00 | 0.00 | 0.00 | 84 | 878.0 |
| 20260905112338 | 51 | 249 | 7.8 | 13.0 | 0.00 | 0.00 | 0.00 | 84 | 878.0 |
| 20260905112138 | 51 | 260 | 8.7 | 13.9 | 0.00 | 0.00 | 0.00 | 84 | 878.0 |
| 20260905111938 | 51 | 260 | 8.7 | 13.9 | 0.00 | 0.00 | 0.00 | 84 | 878.0 |
| 20260905111738 | 51 | 250 | 7.8 | 13.9 | 0.00 | 0.00 | 0.00 | 84 | 878.0 |
| 20260905111538 | 51 | 248 | 7.8 | 18.2 | 0.00 | 0.00 | 0.00 | 84 | 878.0 |
| 20260905111338 | 50 | 252 | 7.8 | 18.2 | 0.00 | 0.00 | 0.00 | 84 | 878.0 |
| 20260905111230 | 51 | 259 | 8.7 | 13.0 | 0.00 | 0.00 | 0.00 | 84 | 878.0 |
| 20260905111138 | 51 | 259 | 8.7 | 13.0 | 0.00 | 0.00 | 0.00 | 84 | 878.0 |
| 20260905110938 | 51 | 248 | 9.6 | 18.2 | 0.00 | 0.00 | 0.00 | 84 | 878.0 |
| 20260905110738 | 51 | 244 | 9.6 | 18.2 | 0.00 | 0.00 | 0.00 | 84 | 877.9 |
| 20260905110538 | 51 | 240 | 8.7 | 12.2 | 0.00 | 0.00 | 0.00 | 84 | 878.0 |
| 20260905110336 | 51 | 260 | 9.6 | 14.8 | 0.00 | 0.00 | 0.00 | 84 | 878.0 |
| 20260905110136 | 51 | 260 | 8.7 | 13.9 | 0.00 | 0.00 | 0.00 | 84 | 878.0 |
| 20260905105936 | 51 | 263 | 9.6 | 15.6 | 0.00 | 0.00 | 0.00 | 85 | 877.9 |
| 20260905105536 | 50 | 247 | 9.6 | 14.8 | 0.00 | 0.00 | 0.00 | 85 | 877.9 |
| 20260905105336 | 50 | 246 | 9.6 | 14.8 | 0.00 | 0.00 | 0.00 | 85 | 877.9 |
| 20260905105136 | 50 | 257 | 5.2 | 10.4 | 0.00 | 0.00 | 0.00 | 85 | 877.9 |
| 20260905104936 | 49 | 270 | 5.2 | 13.9 | 0.00 | 0.00 | 0.00 | 85 | 877.9 |
| 20260905104824 | 49 | 270 | 8.7 | 15.6 | 0.00 | 0.00 | 0.00 | 85 | 877.8 |
| 20260905104737 | 49 | 270 | 8.7 | 15.6 | 0.00 | 0.00 | 0.00 | 85 | 877.8 |
| 20260905104536 | 50 | 266 | 12.2 | 21.7 | 0.00 | 0.00 | 0.00 | 85 | 877.8 |
| 20260905104324 | 50 | 253 | 13.0 | 20.0 | 0.00 | 0.00 | 0.00 | 85 | 877.8 |
| 20260905104124 | 50 | 254 | 10.4 | 16.5 | 0.00 | 0.00 | 0.00 | 85 | 877.8 |
| 20260905103924 | 50 | 267 | 9.6 | 14.8 | 0.00 | 0.00 | 0.00 | 85 | 877.8 |
| 20260905103724 | 50 | 276 | 9.6 | 16.5 | 0.00 | 0.00 | 0.00 | 86 | 877.8 |
| 20260905103524 | 50 | 270 | 10.4 | 15.6 | 0.00 | 0.00 | 0.00 | 86 | 877.8 |
| 20260905103324 | 50 | 263 | 8.7 | 15.6 | 0.00 | 0.00 | 0.00 | 86 | 877.8 |
| 20260905103124 | 49 | 257 | 9.6 | 18.2 | 0.00 | 0.00 | 0.00 | 86 | 877.9 |
| 20260905102922 | 49 | 270 | 8.7 | 13.0 | 0.00 | 0.00 | 0.00 | 86 | 877.9 |
| 20260905102845 | 49 | 275 | 7.0 | 12.2 | 0.00 | 0.00 | 0.00 | 86 | 877.9 |
| 20260905102722 | 49 | 275 | 7.0 | 12.2 | 0.00 | 0.00 | 0.00 | 86 | 877.9 |
| 20260905102522 | 49 | 264 | 6.1 | 12.2 | 0.00 | 0.00 | 0.00 | 86 | 877.9 |
| 20260905102321 | 49 | 253 | 7.8 | 12.2 | 0.00 | 0.00 | 0.00 | 86 | 877.8 |
| 20260905102121 | 49 | 260 | 8.7 | 13.9 | 0.00 | 0.00 | 0.00 | 86 | 877.8 |
| 20260905101921 | 49 | 271 | 8.7 | 11.3 | 0.00 | 0.00 | 0.00 | 86 | 877.8 |
| 20260905101721 | 49 | 267 | 8.7 | 13.0 | 0.00 | 0.00 | 0.00 | 86 | 877.8 |
| 20260905101521 | 49 | 252 | 7.8 | 11.3 | 0.00 | 0.00 | 0.00 | 86 | 877.8 |
| 20260905101320 | 50 | 262 | 7.0 | 12.2 | 0.00 | 0.00 | 0.00 | 87 | 877.8 |
| 20260905101120 | 49 | 249 | 7.0 | 12.2 | 0.00 | 0.00 | 0.00 | 87 | 877.7 |
| 20260905100920 | 49 | 241 | 7.8 | 12.2 | 0.00 | 0.00 | 0.00 | 86 | 877.7 |
| 20260905100720 | 49 | 254 | 7.8 | 12.2 | 0.00 | 0.00 | 0.00 | 87 | 877.7 |
| 20260905100520 | 49 | 260 | 10.4 | 15.6 | 0.00 | 0.00 | 0.00 | 87 | 877.7 |
| 20260905100318 | 49 | 258 | 10.4 | 18.2 | 0.00 | 0.00 | 0.00 | 87 | 877.7 |
| 20260905100148 | 48 | 240 | 10.4 | 17.4 | 0.00 | 0.00 | 0.00 | 87 | 877.6 |
| 20260905100118 | 48 | 248 | 10.4 | 17.4 | 0.00 | 0.00 | 0.00 | 87 | 877.6 |
| 20260905095918 | 48 | 240 | 10.4 | 17.4 | 0.00 | 0.00 | 0.00 | 87 | 877.6 |
| 20260905095718 | 48 | 244 | 10.4 | 17.4 | 0.00 | 0.00 | 0.00 | 87 | 877.6 |
| 20260905095518 | 48 | 258 | 10.4 | 15.6 | 0.00 | 0.00 | 0.00 | 87 | 877.6 |
| 20260905095318 | 48 | 264 | 8.7 | 12.2 | 0.00 | 0.00 | 0.00 | 87 | 877.6 |
| 20260905095118 | 48 | 254 | 8.7 | 14.8 | 0.00 | 0.00 | 0.00 | 87 | 877.5 |
| 20260905094918 | 48 | 241 | 8.7 | 20.0 | 0.00 | 0.00 | 0.00 | 87 | 877.6 |
| 20260905094718 | 48 | 239 | 9.6 | 20.9 | 0.00 | 0.00 | 0.00 | 87 | 877.6 |
| 20260905094518 | 48 | 248 | 9.6 | 20.9 | 0.00 | 0.00 | 0.00 | 87 | 877.6 |
| 20260905094316 | 48 | 267 | 8.7 | 14.8 | 0.00 | 0.00 | 0.00 | 87 | 877.6 |
| 20260905094116 | 48 | 262 | 9.6 | 14.8 | 0.00 | 0.00 | 0.00 | 87 | 877.6 |
| 20260905093916 | 48 | 248 | 7.8 | 13.9 | 0.00 | 0.00 | 0.00 | 87 | 877.6 |
| 20260905093716 | 48 | 238 | 8.7 | 15.6 | 0.00 | 0.00 | 0.00 | 88 | 877.6 |
| 20260905093516 | 47 | 249 | 8.7 | 15.6 | 0.00 | 0.00 | 0.00 | 88 | 877.6 |
| 20260905093316 | 47 | 243 | 7.8 | 12.2 | 0.00 | 0.00 | 0.00 | 88 | 877.6 |
| 20260905093115 | 47 | 244 | 7.8 | 14.8 | 0.00 | 0.00 | 0.00 | 88 | 877.6 |
| 20260905092915 | 47 | 250 | 7.0 | 11.3 | 0.00 | 0.00 | 0.00 | 88 | 877.6 |
| 20260905092715 | 47 | 255 | 7.0 | 13.0 | 0.00 | 0.00 | 0.00 | 88 | 877.6 |
| 20260905092515 | 47 | 263 | 8.7 | 13.0 | 0.00 | 0.00 | 0.00 | 88 | 877.5 |
| 20260905092313 | 47 | 255 | 8.7 | 13.9 | 0.00 | 0.00 | 0.00 | 88 | 877.5 |
| 20260905092110 | 47 | 252 | 9.6 | 16.5 | 0.00 | 0.00 | 0.00 | 88 | 877.5 |
| 20260905091910 | 47 | 251 | 12.2 | 19.1 | 0.00 | 0.00 | 0.00 | 88 | 877.5 |
| 20260905091710 | 47 | 255 | 10.4 | 17.4 | 0.00 | 0.00 | 0.00 | 88 | 877.5 |
| 20260905091510 | 47 | 250 | 11.3 | 17.4 | 0.00 | 0.00 | 0.00 | 88 | 877.5 |
| 20260905091311 | 47 | 253 | 11.3 | 19.1 | 0.00 | 0.00 | 0.00 | 88 | 877.5 |
| 20260905091111 | 47 | 251 | 9.6 | 14.8 | 0.00 | 0.00 | 0.00 | 88 | 877.5 |
| 20260905090911 | 47 | 251 | 9.6 | 18.2 | 0.00 | 0.00 | 0.00 | 88 | 877.4 |
| 20260905090711 | 47 | 258 | 12.2 | 17.4 | 0.00 | 0.00 | 0.00 | 88 | 877.4 |
| 20260905090511 | 46 | 256 | 11.3 | 16.5 | 0.00 | 0.00 | 0.00 | 88 | 877.4 |
| 20260905090309 | 46 | 254 | 12.2 | 17.4 | 0.00 | 0.00 | 0.00 | 88 | 877.4 |
| 20260905090109 | 46 | 250 | 10.4 | 17.4 | 0.00 | 0.00 | 0.00 | 88 | 877.4 |
| 20260905085908 | 46 | 249 | 12.2 | 18.2 | 0.00 | 0.00 | 0.00 | 88 | 877.5 |
| 20260905085711 | 46 | 254 | 11.3 | 18.2 | 0.00 | 0.00 | 0.00 | 88 | 877.6 |
| 20260905085508 | 46 | 257 | 10.4 | 17.4 | 0.00 | 0.00 | 0.00 | 87 | 877.7 |
| 20260905085308 | 46 | 243 | 10.4 | 17.4 | 0.00 | 0.00 | 0.00 | 88 | 877.6 |
| 20260905085108 | 46 | 247 | 12.2 | 18.2 | 0.00 | 0.00 | 0.00 | 88 | 877.5 |
| 20260905084908 | 46 | 246 | 11.3 | 14.8 | 0.00 | 0.00 | 0.00 | 88 | 877.5 |
| 20260905084708 | 46 | 247 | 10.4 | 14.8 | 0.00 | 0.00 | 0.00 | 88 | 877.4 |
| 20260905084508 | 46 | 255 | 9.6 | 13.0 | 0.00 | 0.00 | 0.00 | 88 | 877.4 |
| 20260905084306 | 46 | 245 | 11.3 | 20.9 | 0.00 | 0.00 | 0.00 | 88 | 877.3 |
| 20260905084128 | 46 | 256 | 10.4 | 16.5 | 0.00 | 0.00 | 0.00 | 88 | 877.4 |
| 20260905084106 | 46 | 244 | 9.6 | 15.6 | 0.00 | 0.00 | 0.00 | 88 | 877.3 |
| 20260905083906 | 46 | 256 | 10.4 | 16.5 | 0.00 | 0.00 | 0.00 | 88 | 877.4 |
| 20260905083706 | 46 | 255 | 12.2 | 17.4 | 0.00 | 0.00 | 0.00 | 87 | 877.3 |
| 20260905083647 | 46 | 251 | 11.3 | 17.4 | 0.00 | 0.00 | 0.00 | 87 | 877.2 |
| 20260905083506 | 46 | 251 | 11.3 | 17.4 | 0.00 | 0.00 | 0.00 | 87 | 877.2 |
| 20260905083306 | 46 | 249 | 9.6 | 13.9 | 0.00 | 0.00 | 0.00 | 87 | 877.2 |
| 20260905083106 | 46 | 253 | 11.3 | 13.9 | 0.00 | 0.00 | 0.00 | 88 | 877.2 |
| 20260905082906 | 46 | 248 | 12.2 | 18.2 | 0.00 | 0.00 | 0.00 | 88 | 877.2 |
| 20260905082706 | 46 | 249 | 13.9 | 19.1 | 0.00 | 0.00 | 0.00 | 87 | 877.3 |
| 20260905082307 | 46 | 246 | 12.2 | 16.5 | 0.00 | 0.00 | 0.00 | 88 | 877.1 |
| 20260905082104 | 46 | 250 | 13.0 | 23.5 | 0.00 | 0.00 | 0.00 | 87 | 877.2 |
| 20260905081904 | 45 | 258 | 13.9 | 23.5 | 0.00 | 0.00 | 0.00 | 87 | 877.2 |
| 20260905081704 | 45 | 246 | 14.8 | 18.2 | 0.00 | 0.00 | 0.00 | 87 | 877.1 |
| 20260905081504 | 45 | 247 | 13.9 | 19.1 | 0.00 | 0.00 | 0.00 | 87 | 876.9 |
| 20260905081253 | 45 | 246 | 13.0 | 19.1 | 0.00 | 0.00 | 0.00 | 87 | 876.8 |
| 20260905081053 | 45 | 236 | 13.0 | 19.1 | 0.00 | 0.00 | 0.00 | 87 | 876.8 |
| 20260905080853 | 45 | 238 | 12.2 | 16.5 | 0.00 | 0.00 | 0.00 | 87 | 877.0 |
| 20260905080653 | 45 | 241 | 13.9 | 18.2 | 0.00 | 0.00 | 0.00 | 87 | 877.0 |
| 20260905080452 | 45 | 244 | 13.9 | 20.0 | 0.00 | 0.00 | 0.00 | 87 | 877.1 |
| 20260905080250 | 45 | 246 | 14.8 | 21.7 | 0.00 | 0.00 | 0.00 | 87 | 877.1 |
| 20260905080050 | 45 | 246 | 16.5 | 21.7 | 0.00 | 0.00 | 0.00 | 87 | 877.1 |
| 20260905075850 | 45 | 247 | 13.9 | 20.9 | 0.00 | 0.00 | 0.00 | 87 | 877.0 |
| 20260905075650 | 45 | 242 | 13.9 | 20.9 | 0.00 | 0.00 | 0.00 | 87 | 877.1 |
| 20260905075451 | 45 | 248 | 15.6 | 22.6 | 0.00 | 0.00 | 0.00 | 87 | 877.1 |
| 20260905075250 | 45 | 249 | 15.6 | 22.6 | 0.00 | 0.00 | 0.00 | 87 | 877.2 |
| 20260905075050 | 45 | 240 | 15.6 | 20.9 | 0.00 | 0.00 | 0.00 | 87 | 877.1 |
| 20260905074850 | 45 | 240 | 14.8 | 19.1 | 0.00 | 0.00 | 0.00 | 87 | 877.0 |
| 20260905074650 | 46 | 239 | 16.5 | 20.9 | 0.00 | 0.00 | 0.00 | 87 | 876.9 |
| 20260905074450 | 46 | 233 | 17.4 | 24.3 | 0.00 | 0.00 | 0.00 | 87 | 876.9 |
| 20260905074248 | 45 | 237 | 15.6 | 23.5 | 0.00 | 0.00 | 0.00 | 87 | 876.9 |
| 20260905074049 | 45 | 241 | 15.6 | 20.0 | 0.00 | 0.00 | 0.00 | 87 | 876.9 |
| 20260905073849 | 45 | 239 | 14.8 | 20.9 | 0.00 | 0.00 | 0.00 | 87 | 876.9 |
| 20260905073649 | 45 | 240 | 16.5 | 22.6 | 0.00 | 0.00 | 0.00 | 87 | 876.8 |
| 20260905073449 | 45 | 239 | 14.8 | 19.1 | 0.00 | 0.00 | 0.00 | 87 | 876.8 |
| 20260905073249 | 45 | 241 | 16.5 | 22.6 | 0.00 | 0.00 | 0.00 | 87 | 876.7 |
| 20260905073049 | 45 | 242 | 18.2 | 22.6 | 0.00 | 0.00 | 0.00 | 87 | 876.8 |
| 20260905072849 | 45 | 247 | 17.4 | 21.7 | 0.00 | 0.00 | 0.00 | 87 | 876.8 |
| 20260905072649 | 45 | 253 | 16.5 | 22.6 | 0.00 | 0.00 | 0.00 | 87 | 876.8 |
| 20260905072449 | 45 | 251 | 15.6 | 20.9 | 0.00 | 0.00 | 0.00 | 87 | 876.8 |
| 20260905072247 | 45 | 253 | 15.6 | 20.9 | 0.00 | 0.00 | 0.00 | 87 | 876.9 |
| 20260905072047 | 45 | 254 | 14.8 | 20.9 | 0.00 | 0.00 | 0.00 | 87 | 876.8 |
| 20260905071847 | 45 | 250 | 14.8 | 20.9 | 0.00 | 0.00 | 0.00 | 87 | 876.8 |
| 20260905071647 | 45 | 254 | 14.8 | 20.9 | 0.00 | 0.00 | 0.00 | 87 | 876.9 |
| 20260905071447 | 45 | 258 | 13.0 | 20.9 | 0.00 | 0.00 | 0.00 | 87 | 877.0 |
| 20260905071247 | 45 | 262 | 14.8 | 24.3 | 0.00 | 0.00 | 0.00 | 87 | 877.0 |
| 20260905071047 | 45 | 265 | 13.9 | 24.3 | 0.00 | 0.00 | 0.00 | 87 | 877.1 |
| 20260905070847 | 45 | 258 | 13.9 | 21.7 | 0.00 | 0.00 | 0.00 | 87 | 877.0 |
| 20260905070648 | 45 | 258 | 13.9 | 21.7 | 0.00 | 0.00 | 0.00 | 87 | 876.9 |
| 20260905070445 | 45 | 265 | 13.9 | 20.0 | 0.00 | 0.00 | 0.00 | 87 | 876.8 |
| 20260905070242 | 45 | 266 | 13.9 | 17.4 | 0.00 | 0.00 | 0.00 | 87 | 876.7 |
| 20260905070042 | 45 | 269 | 12.2 | 18.2 | 0.00 | 0.00 | 0.00 | 87 | 876.6 |
| 20260905065842 | 45 | 260 | 13.9 | 20.9 | 0.00 | 0.00 | 0.00 | 87 | 876.5 |
| 20260905065642 | 45 | 255 | 13.0 | 20.9 | 0.00 | 0.00 | 0.00 | 87 | 876.5 |
| 20260905065442 | 45 | 260 | 11.3 | 19.1 | 0.00 | 0.00 | 0.00 | 87 | 876.5 |
| 20260905065242 | 46 | 255 | 12.2 | 19.1 | 0.00 | 0.00 | 0.00 | 87 | 876.5 |
| 20260905065043 | 46 | 259 | 12.2 | 20.9 | 0.00 | 0.00 | 0.00 | 87 | 876.6 |
| 20260905064842 | 46 | 251 | 13.0 | 18.2 | 0.00 | 0.00 | 0.00 | 86 | 876.5 |
| 20260905064642 | 46 | 247 | 13.0 | 20.0 | 0.00 | 0.00 | 0.00 | 87 | 876.5 |
| 20260905064442 | 46 | 249 | 13.9 | 20.0 | 0.00 | 0.00 | 0.00 | 87 | 876.6 |
| 20260905064240 | 46 | 248 | 12.2 | 17.4 | 0.00 | 0.00 | 0.00 | 87 | 876.6 |
| 20260905064040 | 46 | 255 | 11.3 | 20.9 | 0.00 | 0.00 | 0.00 | 86 | 876.6 |
| 20260905063840 | 46 | 251 | 12.2 | 18.2 | 0.00 | 0.00 | 0.00 | 86 | 876.5 |
| 20260905063640 | 46 | 240 | 12.2 | 15.6 | 0.00 | 0.00 | 0.00 | 86 | 876.4 |
| 20260905063440 | 46 | 244 | 13.0 | 21.7 | 0.00 | 0.00 | 0.00 | 86 | 876.3 |
| 20260905063238 | 46 | 241 | 11.3 | 20.0 | 0.00 | 0.00 | 0.00 | 86 | 876.3 |
| 20260905063038 | 46 | 240 | 10.4 | 15.6 | 0.00 | 0.00 | 0.00 | 86 | 876.3 |
| 20260905062838 | 46 | 242 | 10.4 | 14.8 | 0.00 | 0.00 | 0.00 | 86 | 876.2 |
| 20260905062638 | 46 | 241 | 12.2 | 17.4 | 0.00 | 0.00 | 0.00 | 86 | 876.2 |
| 20260905062438 | 46 | 241 | 13.0 | 17.4 | 0.00 | 0.00 | 0.00 | 86 | 876.3 |
| 20260905062236 | 46 | 240 | 14.8 | 20.9 | 0.00 | 0.00 | 0.00 | 86 | 876.5 |
| 20260905062036 | 46 | 242 | 13.9 | 20.9 | 0.00 | 0.00 | 0.00 | 86 | 876.5 |
| 20260905061836 | 47 | 247 | 13.9 | 20.0 | 0.00 | 0.00 | 0.00 | 86 | 876.6 |
| 20260905061636 | 47 | 250 | 13.9 | 21.7 | 0.00 | 0.00 | 0.00 | 86 | 876.6 |
| 20260905061436 | 47 | 250 | 13.9 | 24.3 | 0.00 | 0.00 | 0.00 | 86 | 876.6 |
| 20260905061236 | 47 | 252 | 13.9 | 24.3 | 0.00 | 0.00 | 0.00 | 86 | 876.6 |
| 20260905061036 | 47 | 246 | 13.0 | 19.1 | 0.00 | 0.00 | 0.00 | 86 | 876.5 |
| 20260905060836 | 47 | 257 | 10.4 | 17.4 | 0.00 | 0.00 | 0.00 | 86 | 876.5 |
| 20260905060636 | 47 | 258 | 12.2 | 17.4 | 0.00 | 0.00 | 0.00 | 86 | 876.5 |
| 20260905060436 | 47 | 255 | 12.2 | 20.0 | 0.00 | 0.00 | 0.00 | 86 | 876.5 |
| 20260905060234 | 47 | 253 | 13.9 | 20.0 | 0.00 | 0.00 | 0.00 | 86 | 876.5 |
| 20260905060034 | 47 | 255 | 13.9 | 21.7 | 0.00 | 0.00 | 0.00 | 85 | 876.6 |
| 20260905055834 | 47 | 254 | 13.0 | 19.1 | 0.00 | 0.00 | 0.00 | 85 | 876.7 |
| 20260905055632 | 48 | 263 | 13.9 | 19.1 | 0.00 | 0.00 | 0.00 | 85 | 876.8 |
| 20260905055432 | 48 | 270 | 13.9 | 21.7 | 0.00 | 0.00 | 0.00 | 85 | 876.7 |
| 20260905055232 | 48 | 270 | 13.9 | 20.9 | 0.00 | 0.00 | 0.00 | 85 | 876.7 |
| 20260905055032 | 48 | 274 | 14.8 | 20.9 | 0.00 | 0.00 | 0.00 | 85 | 876.6 |
| 20260905054832 | 48 | 266 | 16.5 | 20.9 | 0.00 | 0.00 | 0.00 | 85 | 876.6 |
| 20260905054632 | 48 | 261 | 15.6 | 20.9 | 0.00 | 0.00 | 0.00 | 85 | 876.5 |
| 20260905054432 | 48 | 263 | 14.8 | 20.0 | 0.00 | 0.00 | 0.00 | 85 | 876.4 |
| 20260905054221 | 48 | 261 | 13.9 | 20.0 | 0.00 | 0.00 | 0.00 | 85 | 876.3 |
| 20260905054021 | 48 | 261 | 13.0 | 19.1 | 0.00 | 0.00 | 0.00 | 85 | 876.3 |
| 20260905053821 | 48 | 267 | 11.3 | 17.4 | 0.00 | 0.00 | 0.00 | 85 | 876.3 |
| 20260905053621 | 48 | 271 | 12.2 | 18.2 | 0.00 | 0.00 | 0.00 | 85 | 876.3 |
| 20260905053421 | 48 | 267 | 12.2 | 16.5 | 0.00 | 0.00 | 0.00 | 85 | 876.3 |
| 20260905053221 | 48 | 256 | 13.0 | 19.1 | 0.00 | 0.00 | 0.00 | 84 | 876.5 |
| 20260905053021 | 48 | 260 | 13.0 | 20.0 | 0.00 | 0.00 | 0.00 | 84 | 876.5 |
| 20260905052821 | 48 | 268 | 13.9 | 22.6 | 0.00 | 0.00 | 0.00 | 84 | 876.3 |
| 20260905052621 | 48 | 271 | 13.0 | 18.2 | 0.00 | 0.00 | 0.00 | 84 | 876.3 |
| 20260905052421 | 48 | 270 | 13.0 | 20.9 | 0.00 | 0.00 | 0.00 | 84 | 876.3 |
| 20260905052219 | 48 | 265 | 13.0 | 17.4 | 0.00 | 0.00 | 0.00 | 84 | 876.3 |
| 20260905052019 | 48 | 271 | 13.0 | 18.2 | 0.00 | 0.00 | 0.00 | 84 | 876.3 |
| 20260905051820 | 48 | 269 | 13.0 | 16.5 | 0.00 | 0.00 | 0.00 | 84 | 876.2 |
| 20260905051618 | 48 | 265 | 13.9 | 20.9 | 0.00 | 0.00 | 0.00 | 84 | 876.2 |
| 20260905051418 | 48 | 263 | 13.9 | 17.4 | 0.00 | 0.00 | 0.00 | 84 | 876.0 |
| 20260905051218 | 48 | 260 | 15.6 | 20.0 | 0.00 | 0.00 | 0.00 | 84 | 876.0 |
| 20260905051019 | 48 | 254 | 15.6 | 20.9 | 0.00 | 0.00 | 0.00 | 84 | 876.0 |
| 20260905050819 | 48 | 251 | 17.4 | 20.9 | 0.00 | 0.00 | 0.00 | 83 | 875.8 |
| 20260905050619 | 48 | 259 | 16.5 | 20.9 | 0.00 | 0.00 | 0.00 | 83 | 875.7 |
| 20260905050419 | 48 | 262 | 15.6 | 20.9 | 0.00 | 0.00 | 0.00 | 83 | 875.7 |
| 20260905050217 | 48 | 265 | 14.8 | 19.1 | 0.00 | 0.00 | 0.00 | 83 | 875.7 |
| 20260905050017 | 49 | 267 | 13.9 | 16.5 | 0.00 | 0.00 | 0.00 | 83 | 875.8 |
| 20260905045817 | 49 | 272 | 13.9 | 19.1 | 0.00 | 0.00 | 0.00 | 83 | 875.9 |
| 20260905045617 | 49 | 273 | 14.8 | 22.6 | 0.00 | 0.00 | 0.00 | 83 | 876.0 |
| 20260905045417 | 49 | 263 | 17.4 | 26.1 | 0.00 | 0.00 | 0.00 | 83 | 876.1 |
| 20260905045217 | 49 | 260 | 19.1 | 26.1 | 0.00 | 0.00 | 0.00 | 83 | 876.1 |
| 20260905045018 | 49 | 263 | 16.5 | 23.5 | 0.00 | 0.00 | 0.00 | 83 | 876.0 |
| 20260905044815 | 49 | 268 | 14.8 | 20.0 | 0.00 | 0.00 | 0.00 | 82 | 875.9 |
| 20260905044615 | 49 | 269 | 15.6 | 20.0 | 0.00 | 0.00 | 0.00 | 82 | 875.9 |
| 20260905044415 | 49 | 261 | 16.5 | 23.5 | 0.00 | 0.00 | 0.00 | 82 | 875.9 |
| 20260905044213 | 49 | 257 | 16.5 | 21.7 | 0.00 | 0.00 | 0.00 | 82 | 875.8 |
| 20260905044013 | 49 | 264 | 14.8 | 22.6 | 0.00 | 0.00 | 0.00 | 82 | 875.8 |
| 20260905043813 | 49 | 270 | 16.5 | 22.6 | 0.00 | 0.00 | 0.00 | 82 | 875.7 |
| 20260905043613 | 49 | 269 | 15.6 | 21.7 | 0.00 | 0.00 | 0.00 | 83 | 875.7 |
| 20260905043413 | 49 | 267 | 15.6 | 20.0 | 0.00 | 0.00 | 0.00 | 83 | 875.7 |
| 20260905043212 | 49 | 263 | 15.6 | 21.7 | 0.00 | 0.00 | 0.00 | 83 | 875.8 |
| 20260905043012 | 49 | 259 | 14.8 | 20.0 | 0.00 | 0.00 | 0.00 | 83 | 875.9 |
| 20260905042812 | 49 | 260 | 15.6 | 20.9 | 0.00 | 0.00 | 0.00 | 83 | 875.9 |
| 20260905042612 | 49 | 260 | 13.0 | 20.9 | 0.00 | 0.00 | 0.00 | 82 | 875.9 |
| 20260905042412 | 49 | 261 | 14.8 | 20.0 | 0.00 | 0.00 | 0.00 | 83 | 875.8 |
| 20260905042211 | 48 | 259 | 17.4 | 23.5 | 0.00 | 0.00 | 0.00 | 83 | 875.8 |
| 20260905042010 | 48 | 263 | 16.5 | 24.3 | 0.00 | 0.00 | 0.00 | 83 | 875.8 |
| 20260905041810 | 48 | 263 | 14.8 | 24.3 | 0.00 | 0.00 | 0.00 | 83 | 875.8 |
| 20260905041610 | 48 | 262 | 14.8 | 20.0 | 0.00 | 0.00 | 0.00 | 83 | 875.7 |
| 20260905041410 | 48 | 260 | 15.6 | 20.0 | 0.00 | 0.00 | 0.00 | 83 | 875.6 |
| 20260905041210 | 48 | 259 | 15.6 | 20.9 | 0.00 | 0.00 | 0.00 | 82 | 875.5 |
| 20260905041010 | 48 | 256 | 17.4 | 20.9 | 0.00 | 0.00 | 0.00 | 82 | 875.4 |
| 20260905040811 | 49 | 257 | 16.5 | 20.0 | 0.00 | 0.00 | 0.00 | 82 | 875.5 |
| 20260905040611 | 49 | 257 | 13.0 | 20.0 | 0.00 | 0.00 | 0.00 | 82 | 875.6 |
| 20260905040411 | 49 | 264 | 13.0 | 18.2 | 0.00 | 0.00 | 0.00 | 82 | 875.7 |
| 20260905040209 | 49 | 261 | 17.4 | 21.7 | 0.00 | 0.00 | 0.00 | 82 | 875.7 |
| 20260905040009 | 50 | 268 | 15.6 | 21.7 | 0.00 | 0.00 | 0.00 | 81 | 875.8 |
| 20260905035809 | 50 | 269 | 13.9 | 20.0 | 0.00 | 0.00 | 0.00 | 81 | 875.8 |
| 20260905035609 | 50 | 262 | 13.9 | 18.2 | 0.00 | 0.00 | 0.00 | 81 | 875.7 |
| 20260905035409 | 50 | 260 | 13.9 | 17.4 | 0.00 | 0.00 | 0.00 | 81 | 875.6 |
| 20260905035209 | 50 | 260 | 13.0 | 16.5 | 0.00 | 0.00 | 0.00 | 81 | 875.5 |
| 20260905035009 | 50 | 259 | 12.2 | 16.5 | 0.00 | 0.00 | 0.00 | 81 | 875.5 |
| 20260905034809 | 50 | 259 | 13.9 | 17.4 | 0.00 | 0.00 | 0.00 | 81 | 875.5 |
| 20260905034609 | 50 | 253 | 13.9 | 19.1 | 0.00 | 0.00 | 0.00 | 81 | 875.4 |
| 20260905034409 | 50 | 252 | 13.9 | 19.1 | 0.00 | 0.00 | 0.00 | 81 | 875.4 |
| 20260905034207 | 50 | 251 | 13.9 | 20.0 | 0.00 | 0.00 | 0.00 | 81 | 875.4 |
| 20260905034005 | 50 | 257 | 14.8 | 20.9 | 0.00 | 0.00 | 0.00 | 82 | 875.4 |
| 20260905033805 | 50 | 260 | 13.9 | 18.2 | 0.00 | 0.00 | 0.00 | 82 | 875.4 |
| 20260905033605 | 50 | 262 | 13.9 | 19.1 | 0.00 | 0.00 | 0.00 | 82 | 875.3 |
| 20260905033405 | 50 | 260 | 14.8 | 19.1 | 0.00 | 0.00 | 0.00 | 82 | 875.3 |
| 20260905033205 | 50 | 260 | 13.9 | 18.2 | 0.00 | 0.00 | 0.00 | 82 | 875.3 |
| 20260905033005 | 50 | 261 | 14.8 | 18.2 | 0.00 | 0.00 | 0.00 | 82 | 875.3 |
| 20260905032805 | 50 | 265 | 14.8 | 18.2 | 0.00 | 0.00 | 0.00 | 82 | 875.2 |
| 20260905032605 | 50 | 260 | 13.9 | 17.4 | 0.00 | 0.00 | 0.00 | 82 | 875.2 |
| 20260905032405 | 50 | 256 | 14.8 | 18.2 | 0.00 | 0.00 | 0.00 | 82 | 875.2 |
| 20260905032203 | 50 | 257 | 14.8 | 18.2 | 0.00 | 0.00 | 0.00 | 82 | 875.2 |
| 20260905032003 | 50 | 257 | 14.8 | 18.2 | 0.00 | 0.00 | 0.00 | 82 | 875.2 |
| 20260905031804 | 50 | 257 | 13.9 | 17.4 | 0.00 | 0.00 | 0.00 | 82 | 875.3 |
| 20260905031603 | 50 | 254 | 13.9 | 18.2 | 0.00 | 0.00 | 0.00 | 82 | 875.3 |
| 20260905031403 | 50 | 252 | 15.6 | 20.0 | 0.00 | 0.00 | 0.00 | 82 | 875.3 |
| 20260905031154 | 50 | 255 | 14.8 | 20.0 | 0.00 | 0.00 | 0.00 | 82 | 875.5 |
| 20260905030959 | 50 | 259 | 15.6 | 20.9 | 0.00 | 0.00 | 0.00 | 82 | 875.6 |
| 20260905030954 | 50 | 259 | 15.6 | 21.7 | 0.00 | 0.00 | 0.00 | 82 | 875.6 |
| 20260905030753 | 50 | 254 | 17.4 | 21.7 | 0.00 | 0.00 | 0.00 | 82 | 875.6 |
| 20260905030553 | 50 | 259 | 15.6 | 20.9 | 0.00 | 0.00 | 0.00 | 82 | 875.6 |
| 20260905030353 | 50 | 259 | 14.8 | 19.1 | 0.00 | 0.00 | 0.00 | 82 | 875.5 |
| 20260905030151 | 50 | 260 | 15.6 | 20.9 | 0.00 | 0.00 | 0.00 | 82 | 875.5 |
| 20260905025951 | 50 | 263 | 13.9 | 19.1 | 0.00 | 0.00 | 0.00 | 81 | 875.6 |
| 20260905025751 | 50 | 265 | 13.9 | 16.5 | 0.00 | 0.00 | 0.00 | 82 | 875.6 |
| 20260905025551 | 50 | 262 | 13.9 | 18.2 | 0.00 | 0.00 | 0.00 | 81 | 875.6 |
| 20260905025352 | 50 | 261 | 15.6 | 19.1 | 0.00 | 0.00 | 0.00 | 81 | 875.5 |
| 20260905025151 | 50 | 257 | 17.4 | 23.5 | 0.00 | 0.00 | 0.00 | 81 | 875.5 |
| 20260905024951 | 50 | 260 | 13.9 | 18.2 | 0.00 | 0.00 | 0.00 | 81 | 875.5 |
| 20260905024751 | 50 | 264 | 13.0 | 21.7 | 0.00 | 0.00 | 0.00 | 81 | 875.5 |
| 20260905024550 | 50 | 268 | 15.6 | 21.7 | 0.00 | 0.00 | 0.00 | 81 | 875.4 |
| 20260905024350 | 50 | 260 | 14.8 | 20.9 | 0.00 | 0.00 | 0.00 | 81 | 875.4 |
| 20260905024148 | 50 | 259 | 13.0 | 17.4 | 0.00 | 0.00 | 0.00 | 81 | 875.4 |
| 20260905023948 | 50 | 261 | 14.8 | 18.2 | 0.00 | 0.00 | 0.00 | 81 | 875.5 |
| 20260905023748 | 50 | 265 | 13.0 | 15.6 | 0.00 | 0.00 | 0.00 | 81 | 875.6 |
| 20260905023548 | 50 | 265 | 13.9 | 17.4 | 0.00 | 0.00 | 0.00 | 81 | 875.5 |
| 20260905023348 | 50 | 262 | 17.4 | 23.5 | 0.00 | 0.00 | 0.00 | 81 | 875.5 |
| 20260905023146 | 50 | 259 | 16.5 | 23.5 | 0.00 | 0.00 | 0.00 | 81 | 875.5 |
| 20260905022946 | 50 | 263 | 17.4 | 26.1 | 0.00 | 0.00 | 0.00 | 81 | 875.5 |
| 20260905022746 | 50 | 253 | 20.0 | 26.1 | 0.00 | 0.00 | 0.00 | 81 | 875.6 |
| 20260905022546 | 50 | 261 | 15.6 | 26.1 | 0.00 | 0.00 | 0.00 | 81 | 875.6 |
| 20260905022346 | 50 | 265 | 14.8 | 19.1 | 0.00 | 0.00 | 0.00 | 81 | 875.6 |
| 20260905022144 | 50 | 261 | 15.6 | 20.9 | 0.00 | 0.00 | 0.00 | 81 | 875.6 |
| 20260905021945 | 50 | 262 | 15.6 | 20.9 | 0.00 | 0.00 | 0.00 | 81 | 875.7 |
| 20260905021745 | 50 | 265 | 15.6 | 21.7 | 0.00 | 0.00 | 0.00 | 81 | 875.7 |
| 20260905021545 | 50 | 267 | 15.6 | 23.5 | 0.00 | 0.00 | 0.00 | 81 | 875.7 |
| 20260905021345 | 50 | 271 | 18.2 | 23.5 | 0.00 | 0.00 | 0.00 | 81 | 875.7 |
| 20260905021145 | 50 | 271 | 17.4 | 23.5 | 0.00 | 0.00 | 0.00 | 81 | 875.7 |
| 20260905020945 | 50 | 262 | 15.6 | 23.5 | 0.00 | 0.00 | 0.00 | 81 | 875.7 |
| 20260905020745 | 50 | 262 | 15.6 | 23.5 | 0.00 | 0.00 | 0.00 | 81 | 875.6 |
| 20260905020545 | 50 | 259 | 17.4 | 23.5 | 0.00 | 0.00 | 0.00 | 81 | 875.6 |
| 20260905020344 | 50 | 262 | 17.4 | 22.6 | 0.00 | 0.00 | 0.00 | 82 | 875.6 |
| 20260905020143 | 50 | 263 | 16.5 | 22.6 | 0.00 | 0.00 | 0.00 | 81 | 875.5 |
| 20260905015943 | 50 | 265 | 16.5 | 20.0 | 0.00 | 0.00 | 0.00 | 81 | 875.5 |
| 20260905015743 | 50 | 270 | 15.6 | 19.1 | 0.00 | 0.00 | 0.00 | 81 | 875.6 |
| 20260905015543 | 50 | 269 | 15.6 | 20.0 | 0.00 | 0.00 | 0.00 | 81 | 875.6 |
| 20260905015343 | 50 | 265 | 16.5 | 20.0 | 0.00 | 0.00 | 0.00 | 81 | 875.6 |
| 20260905015142 | 50 | 266 | 16.5 | 20.9 | 0.00 | 0.00 | 0.00 | 81 | 875.6 |
| 20260905014942 | 50 | 266 | 17.4 | 25.2 | 0.00 | 0.00 | 0.00 | 81 | 875.5 |
| 20260905014743 | 50 | 269 | 15.6 | 25.2 | 0.00 | 0.00 | 0.00 | 81 | 875.6 |
| 20260905014542 | 50 | 270 | 13.9 | 18.2 | 0.00 | 0.00 | 0.00 | 81 | 875.6 |
| 20260905014343 | 50 | 266 | 14.8 | 22.6 | 0.00 | 0.00 | 0.00 | 81 | 875.7 |
| 20260905014141 | 50 | 258 | 15.6 | 22.6 | 0.00 | 0.00 | 0.00 | 81 | 875.7 |
| 20260905013941 | 50 | 259 | 13.9 | 18.2 | 0.00 | 0.00 | 0.00 | 81 | 875.7 |
| 20260905013741 | 50 | 264 | 14.8 | 22.6 | 0.00 | 0.00 | 0.00 | 81 | 875.7 |
| 20260905013541 | 50 | 260 | 13.9 | 18.2 | 0.00 | 0.00 | 0.00 | 81 | 875.6 |
| 20260905013341 | 50 | 270 | 14.8 | 20.0 | 0.00 | 0.00 | 0.00 | 81 | 875.6 |
| 20260905013141 | 50 | 275 | 17.4 | 20.0 | 0.00 | 0.00 | 0.00 | 81 | 875.6 |
| 20260905012941 | 50 | 272 | 14.8 | 20.0 | 0.00 | 0.00 | 0.00 | 81 | 875.6 |
| 20260905012741 | 50 | 271 | 14.8 | 21.7 | 0.00 | 0.00 | 0.00 | 81 | 875.6 |
| 20260905012541 | 50 | 272 | 16.5 | 24.3 | 0.00 | 0.00 | 0.00 | 81 | 875.5 |
| 20260905012339 | 50 | 278 | 18.2 | 26.1 | 0.00 | 0.00 | 0.00 | 81 | 875.5 |
| 20260905012137 | 50 | 278 | 17.4 | 26.1 | 0.00 | 0.00 | 0.00 | 81 | 875.5 |
| 20260905011937 | 50 | 274 | 13.9 | 21.7 | 0.00 | 0.00 | 0.00 | 82 | 875.5 |
| 20260905011738 | 50 | 275 | 13.0 | 19.1 | 0.00 | 0.00 | 0.00 | 81 | 875.5 |
| 20260905011537 | 50 | 278 | 14.8 | 19.1 | 0.00 | 0.00 | 0.00 | 81 | 875.5 |
| 20260905011337 | 50 | 280 | 16.5 | 21.7 | 0.00 | 0.00 | 0.00 | 81 | 875.6 |
| 20260905011137 | 50 | 275 | 14.8 | 20.9 | 0.00 | 0.00 | 0.00 | 81 | 875.7 |
| 20260905010938 | 50 | 273 | 14.8 | 19.1 | 0.00 | 0.00 | 0.00 | 81 | 875.7 |
| 20260905010737 | 50 | 278 | 12.2 | 19.1 | 0.00 | 0.00 | 0.00 | 81 | 875.6 |
| 20260905010537 | 50 | 275 | 13.0 | 18.2 | 0.00 | 0.00 | 0.00 | 81 | 875.6 |
| 20260905010337 | 50 | 276 | 13.0 | 18.2 | 0.00 | 0.00 | 0.00 | 81 | 875.6 |
| 20260905010135 | 50 | 273 | 11.3 | 17.4 | 0.00 | 0.00 | 0.00 | 81 | 875.6 |
| 20260905005935 | 50 | 272 | 13.9 | 19.1 | 0.00 | 0.00 | 0.00 | 81 | 875.5 |
| 20260905005736 | 50 | 273 | 13.0 | 17.4 | 0.00 | 0.00 | 0.00 | 81 | 875.5 |
| 20260905005534 | 50 | 276 | 12.2 | 16.5 | 0.00 | 0.00 | 0.00 | 81 | 817.8 |
| 20260905005334 | 50 | 276 | 12.2 | 16.5 | 0.00 | 0.00 | 0.00 | 81 | 760.1 |
| 20260905005125 | 50 | 281 | 14.8 | 20.0 | 0.00 | 0.00 | 0.00 | 81 | 875.3 |
| 20260905004923 | 50 | 283 | 16.5 | 21.7 | 0.00 | 0.00 | 0.00 | 81 | 875.3 |
| 20260905004723 | 51 | 284 | 14.8 | 20.0 | 0.00 | 0.00 | 0.00 | 81 | 875.3 |
| 20260905004523 | 51 | 274 | 13.9 | 19.1 | 0.00 | 0.00 | 0.00 | 81 | 875.3 |
| 20260905004323 | 51 | 278 | 14.8 | 19.1 | 0.00 | 0.00 | 0.00 | 81 | 875.3 |
| 20260905004123 | 51 | 280 | 15.6 | 20.0 | 0.00 | 0.00 | 0.00 | 81 | 875.2 |
| 20260905003924 | 51 | 278 | 16.5 | 20.9 | 0.00 | 0.00 | 0.00 | 81 | 875.2 |
| 20260905003723 | 51 | 277 | 16.5 | 20.9 | 0.00 | 0.00 | 0.00 | 81 | 875.2 |
| 20260905003523 | 51 | 274 | 13.9 | 20.9 | 0.00 | 0.00 | 0.00 | 81 | 875.2 |
| 20260905003323 | 52 | 280 | 13.9 | 19.1 | 0.00 | 0.00 | 0.00 | 81 | 875.2 |
| 20260905003121 | 52 | 286 | 13.0 | 17.4 | 0.00 | 0.00 | 0.00 | 81 | 875.2 |
| 20260905002921 | 52 | 272 | 11.3 | 15.6 | 0.00 | 0.00 | 0.00 | 81 | 875.3 |
| 20260905002721 | 52 | 269 | 10.4 | 13.9 | 0.00 | 0.00 | 0.00 | 81 | 875.2 |
| 20260905002521 | 52 | 270 | 9.6 | 13.0 | 0.00 | 0.00 | 0.00 | 81 | 875.1 |
| 20260905002321 | 52 | 270 | 8.7 | 11.3 | 0.00 | 0.00 | 0.00 | 81 | 875.0 |
| 20260905002121 | 52 | 259 | 9.6 | 13.0 | 0.00 | 0.00 | 0.00 | 81 | 875.1 |
| 20260905001922 | 52 | 259 | 9.6 | 11.3 | 0.00 | 0.00 | 0.00 | 81 | 875.1 |
| 20260905001721 | 52 | 270 | 8.7 | 12.2 | 0.00 | 0.00 | 0.00 | 80 | 875.1 |
| 20260905001522 | 52 | 272 | 10.4 | 13.9 | 0.00 | 0.00 | 0.00 | 80 | 875.0 |
| 20260905001321 | 52 | 268 | 9.6 | 13.9 | 0.00 | 0.00 | 0.00 | 80 | 874.9 |
| 20260905001119 | 53 | 268 | 7.8 | 11.3 | 0.00 | 0.00 | 0.00 | 80 | 875.0 |
| 20260905000919 | 53 | 265 | 8.7 | 13.0 | 0.00 | 0.00 | 0.00 | 80 | 875.0 |
| 20260905000719 | 53 | 255 | 10.4 | 14.8 | 0.00 | 0.00 | 0.00 | 80 | 875.0 |
| 20260905000519 | 53 | 257 | 11.3 | 14.8 | 0.00 | 0.00 | 0.00 | 80 | 875.0 |
| 20260905000319 | 53 | 267 | 10.4 | 13.9 | 0.00 | 0.00 | 0.00 | 79 | 874.9 |
| 20260905000119 | 53 | 265 | 9.6 | 13.0 | 0.00 | 0.00 | 0.00 | 79 | 874.8 |
| 20260904235919 | 53 | 260 | 10.4 | 13.0 | 0.00 | 0.00 | 0.00 | 79 | 874.8 |
| 20260904235719 | 53 | 257 | 12.2 | 15.6 | 0.00 | 0.00 | 0.00 | 79 | 874.8 |
| 20260904235519 | 53 | 259 | 11.3 | 15.6 | 0.00 | 0.00 | 0.00 | 79 | 874.8 |
| 20260904235319 | 54 | 259 | 9.6 | 14.8 | 0.00 | 0.00 | 0.00 | 79 | 874.7 |
| 20260904235223 | 54 | 261 | 10.4 | 13.9 | 0.00 | 0.00 | 0.00 | 79 | 874.7 |
| 20260904235117 | 54 | 261 | 10.4 | 13.9 | 0.00 | 0.00 | 0.00 | 79 | 874.7 |
| 20260904234917 | 54 | 260 | 10.4 | 13.0 | 0.00 | 0.00 | 0.00 | 78 | 874.7 |
| 20260904234717 | 54 | 254 | 10.4 | 13.9 | 0.00 | 0.00 | 0.00 | 78 | 874.7 |
| 20260904234517 | 54 | 242 | 10.4 | 13.9 | 0.00 | 0.00 | 0.00 | 78 | 874.6 |
| 20260904234317 | 54 | 244 | 10.4 | 13.0 | 0.00 | 0.00 | 0.00 | 78 | 874.6 |
| 20260904234115 | 54 | 256 | 9.6 | 13.9 | 0.00 | 0.00 | 0.00 | 78 | 874.6 |
| 20260904233915 | 55 | 257 | 11.3 | 16.5 | 0.00 | 0.00 | 0.00 | 78 | 874.6 |
| 20260904233715 | 55 | 256 | 10.4 | 14.8 | 0.00 | 0.00 | 0.00 | 78 | 874.6 |
| 20260904233515 | 55 | 257 | 11.3 | 14.8 | 0.00 | 0.00 | 0.00 | 77 | 874.6 |
| 20260904233315 | 55 | 256 | 12.2 | 18.2 | 0.00 | 0.00 | 0.00 | 77 | 874.6 |
| 20260904233113 | 55 | 257 | 10.4 | 18.2 | 0.00 | 0.00 | 0.00 | 77 | 874.6 |
| 20260904232913 | 56 | 252 | 12.2 | 18.2 | 0.00 | 0.00 | 0.00 | 77 | 874.6 |
| 20260904232713 | 56 | 261 | 13.0 | 17.4 | 0.00 | 0.00 | 0.00 | 77 | 874.6 |
| 20260904232513 | 56 | 265 | 13.0 | 16.5 | 0.00 | 0.00 | 0.00 | 76 | 874.5 |
| 20260904232313 | 56 | 268 | 12.2 | 17.4 | 0.00 | 0.00 | 0.00 | 76 | 874.5 |
| 20260904232113 | 57 | 262 | 12.2 | 16.5 | 0.00 | 0.00 | 0.00 | 75 | 874.5 |
| 20260904231913 | 57 | 259 | 11.3 | 16.5 | 0.00 | 0.00 | 0.00 | 75 | 874.5 |
| 20260904231713 | 58 | 266 | 9.6 | 13.9 | 0.00 | 0.00 | 0.00 | 75 | 874.5 |
| 20260904231513 | 58 | 270 | 9.6 | 13.9 | 0.00 | 0.00 | 0.00 | 75 | 874.5 |
| 20260904231111 | 59 | 269 | 11.3 | 17.4 | 0.00 | 0.00 | 0.00 | 74 | 874.4 |
| 20260904230911 | 59 | 263 | 13.9 | 20.9 | 0.00 | 0.00 | 0.00 | 74 | 874.4 |
| 20260904230711 | 60 | 270 | 10.4 | 20.9 | 0.00 | 0.00 | 0.00 | 73 | 874.5 |
| 20260904230510 | 60 | 279 | 9.6 | 14.8 | 0.00 | 0.00 | 0.00 | 73 | 874.4 |
| 20260904230310 | 61 | 263 | 15.6 | 26.9 | 0.00 | 0.00 | 0.00 | 72 | 874.3 |
| 20260904230110 | 62 | 263 | 15.6 | 26.9 | 0.00 | 0.00 | 0.00 | 72 | 874.3 |
| 20260904225910 | 63 | 269 | 13.0 | 21.7 | 0.00 | 0.00 | 0.00 | 72 | 874.4 |
| 20260904225710 | 63 | 267 | 10.4 | 20.9 | 0.00 | 0.00 | 0.00 | 71 | 874.2 |
| 20260904225510 | 63 | 249 | 20.0 | 34.8 | 0.00 | 0.00 | 0.00 | 71 | 873.9 |
| 20260904225310 | 63 | 240 | 22.6 | 34.8 | 0.00 | 0.00 | 0.00 | 71 | 873.6 |
| 20260904225108 | 63 | 243 | 22.6 | 34.8 | 0.00 | 0.00 | 0.00 | 71 | 873.6 |
| 20260904224908 | 63 | 236 | 22.6 | 34.8 | 0.00 | 0.00 | 0.00 | 72 | 873.5 |
| 20260904224708 | 63 | 232 | 21.7 | 30.4 | 0.00 | 0.00 | 0.00 | 72 | 873.6 |
| 20260904224508 | 63 | 233 | 21.7 | 30.4 | 0.00 | 0.00 | 0.00 | 72 | 873.6 |
| 20260904224309 | 63 | 225 | 21.7 | 28.7 | 0.00 | 0.00 | 0.00 | 72 | 873.6 |
| 20260904224109 | 63 | 228 | 20.9 | 28.7 | 0.00 | 0.00 | 0.00 | 72 | 873.6 |
| 20260904223909 | 63 | 234 | 20.0 | 25.2 | 0.00 | 0.00 | 0.00 | 72 | 873.6 |
| 20260904223709 | 62 | 234 | 20.9 | 29.5 | 0.00 | 0.00 | 0.00 | 72 | 873.6 |
| 20260904223509 | 62 | 231 | 22.6 | 29.5 | 0.00 | 0.00 | 0.00 | 72 | 873.7 |
| 20260904223307 | 62 | 234 | 19.1 | 31.3 | 0.00 | 0.00 | 0.00 | 72 | 873.7 |
| 20260904223105 | 62 | 235 | 18.2 | 31.3 | 0.00 | 0.00 | 0.00 | 72 | 873.8 |
| 20260904222904 | 62 | 228 | 17.4 | 26.1 | 0.00 | 0.00 | 0.00 | 72 | 873.8 |
| 20260904222705 | 62 | 220 | 17.4 | 26.9 | 0.00 | 0.00 | 0.00 | 72 | 873.8 |
| 20260904222504 | 62 | 217 | 18.2 | 26.1 | 0.00 | 0.00 | 0.00 | 72 | 873.8 |
| 20260904222306 | 62 | 223 | 17.4 | 26.1 | 0.00 | 0.00 | 0.00 | 72 | 873.8 |
| 20260904222055 | 62 | 223 | 15.6 | 23.5 | 0.00 | 0.00 | 0.00 | 72 | 873.8 |
| 20260904221855 | 63 | 220 | 15.6 | 23.5 | 0.00 | 0.00 | 0.00 | 72 | 873.8 |
| 20260904221655 | 63 | 220 | 15.6 | 20.9 | 0.00 | 0.00 | 0.00 | 72 | 873.8 |
| 20260904221455 | 63 | 213 | 17.4 | 26.9 | 0.00 | 0.00 | 0.00 | 72 | 873.8 |
| 20260904221255 | 63 | 217 | 16.5 | 20.9 | 0.00 | 0.00 | 0.00 | 72 | 873.8 |
| 20260904221053 | 63 | 215 | 17.4 | 22.6 | 0.00 | 0.00 | 0.00 | 72 | 873.8 |
| 20260904220853 | 63 | 215 | 18.2 | 31.3 | 0.00 | 0.00 | 0.00 | 72 | 873.8 |
| 20260904220653 | 62 | 212 | 17.4 | 31.3 | 0.00 | 0.00 | 0.00 | 72 | 873.9 |
| 20260904220453 | 62 | 211 | 19.1 | 26.9 | 0.00 | 0.00 | 0.00 | 72 | 874.0 |
| 20260904220253 | 62 | 217 | 17.4 | 26.9 | 0.00 | 0.00 | 0.00 | 72 | 873.9 |
| 20260904220051 | 62 | 217 | 15.6 | 23.5 | 0.00 | 0.00 | 0.00 | 72 | 873.9 |
| 20260904215851 | 62 | 207 | 19.1 | 29.5 | 0.00 | 0.00 | 0.00 | 72 | 873.9 |
| 20260904215651 | 62 | 212 | 17.4 | 27.8 | 0.00 | 0.00 | 0.00 | 72 | 873.9 |
| 20260904215452 | 62 | 217 | 17.4 | 26.1 | 0.00 | 0.00 | 0.00 | 72 | 873.9 |
| 20260904215252 | 62 | 214 | 19.1 | 26.1 | 0.00 | 0.00 | 0.00 | 72 | 873.9 |
| 20260904215050 | 62 | 215 | 19.1 | 26.1 | 0.00 | 0.00 | 0.00 | 72 | 873.9 |
| 20260904214850 | 62 | 214 | 20.0 | 28.7 | 0.00 | 0.00 | 0.00 | 72 | 873.9 |
| 20260904214650 | 62 | 212 | 20.0 | 28.7 | 0.00 | 0.00 | 0.00 | 72 | 874.0 |
| 20260904214450 | 62 | 208 | 20.0 | 28.7 | 0.00 | 0.00 | 0.00 | 72 | 873.9 |
| 20260904214250 | 62 | 215 | 20.9 | 28.7 | 0.00 | 0.00 | 0.00 | 73 | 873.9 |
| 20260904214050 | 62 | 216 | 19.1 | 24.3 | 0.00 | 0.00 | 0.00 | 73 | 873.9 |
| 20260904213850 | 62 | 212 | 18.2 | 26.1 | 0.00 | 0.00 | 0.00 | 73 | 873.9 |
| 20260904213650 | 62 | 210 | 20.9 | 26.1 | 0.00 | 0.00 | 0.00 | 72 | 873.9 |
| 20260904213450 | 62 | 208 | 20.0 | 28.7 | 0.00 | 0.00 | 0.00 | 73 | 873.9 |
| 20260904213250 | 63 | 208 | 20.0 | 28.7 | 0.00 | 0.00 | 0.00 | 73 | 873.9 |
| 20260904213048 | 63 | 210 | 19.1 | 26.9 | 0.00 | 0.00 | 0.00 | 73 | 873.9 |
| 20260904212848 | 63 | 216 | 19.1 | 27.8 | 0.00 | 0.00 | 0.00 | 73 | 874.0 |
| 20260904212648 | 63 | 212 | 19.1 | 26.1 | 0.00 | 0.00 | 0.00 | 73 | 873.9 |
| 20260904212446 | 63 | 214 | 20.0 | 25.2 | 0.00 | 0.00 | 0.00 | 73 | 873.9 |
| 20260904212246 | 62 | 213 | 19.1 | 25.2 | 0.00 | 0.00 | 0.00 | 73 | 873.9 |
| 20260904212046 | 62 | 212 | 17.4 | 23.5 | 0.00 | 0.00 | 0.00 | 73 | 873.8 |
| 20260904211846 | 62 | 209 | 19.1 | 28.7 | 0.00 | 0.00 | 0.00 | 73 | 873.9 |
| 20260904211646 | 62 | 209 | 20.0 | 31.3 | 0.00 | 0.00 | 0.00 | 73 | 873.9 |
| 20260904211446 | 62 | 214 | 20.0 | 31.3 | 0.00 | 0.00 | 0.00 | 73 | 873.8 |
| 20260904211246 | 62 | 214 | 18.2 | 26.1 | 0.00 | 0.00 | 0.00 | 73 | 873.8 |
| 20260904211044 | 62 | 212 | 18.2 | 28.7 | 0.00 | 0.00 | 0.00 | 73 | 873.8 |
| 20260904210844 | 62 | 209 | 20.0 | 28.7 | 0.00 | 0.00 | 0.00 | 73 | 873.7 |
| 20260904210644 | 62 | 213 | 20.0 | 26.9 | 0.00 | 0.00 | 0.00 | 73 | 873.7 |
| 20260904210444 | 62 | 215 | 20.0 | 30.4 | 0.00 | 0.00 | 0.00 | 73 | 873.7 |
| 20260904210244 | 62 | 209 | 20.9 | 38.2 | 0.00 | 0.00 | 0.00 | 74 | 873.8 |
| 20260904210043 | 62 | 205 | 19.1 | 26.1 | 0.00 | 0.00 | 0.00 | 74 | 873.8 |
| 20260904205843 | 62 | 212 | 20.0 | 27.8 | 0.00 | 0.00 | 0.00 | 74 | 873.8 |
| 20260904205644 | 62 | 203 | 16.5 | 25.2 | 0.00 | 0.00 | 0.00 | 74 | 873.8 |
| 20260904205444 | 62 | 202 | 17.4 | 38.2 | 0.00 | 0.00 | 0.00 | 74 | 873.7 |
| 20260904205244 | 62 | 203 | 18.2 | 25.2 | 0.00 | 0.00 | 0.00 | 74 | 873.8 |
| 20260904205042 | 63 | 210 | 20.0 | 30.4 | 0.00 | 0.00 | 0.00 | 74 | 873.8 |
| 20260904204842 | 63 | 210 | 20.0 | 30.4 | 0.00 | 0.00 | 0.00 | 74 | 873.8 |
| 20260904204642 | 63 | 209 | 20.0 | 29.5 | 0.00 | 0.00 | 0.00 | 74 | 873.8 |
| 20260904204442 | 63 | 207 | 20.0 | 29.5 | 0.00 | 0.00 | 0.00 | 74 | 873.8 |
| 20260904204242 | 62 | 209 | 18.2 | 27.8 | 0.00 | 0.00 | 0.00 | 74 | 873.8 |
| 20260904204047 | 62 | 211 | 19.1 | 27.8 | 0.00 | 0.00 | 0.00 | 74 | 873.8 |
| 20260904203842 | 62 | 213 | 17.4 | 25.2 | 0.00 | 0.00 | 0.00 | 74 | 873.7 |
| 20260904203642 | 62 | 205 | 19.1 | 32.2 | 0.00 | 0.00 | 0.00 | 74 | 873.7 |
| 20260904203442 | 62 | 209 | 19.1 | 32.2 | 0.00 | 0.00 | 0.00 | 74 | 873.8 |
| 20260904203242 | 62 | 211 | 20.0 | 30.4 | 0.00 | 0.00 | 0.00 | 74 | 873.9 |
| 20260904203040 | 62 | 203 | 18.2 | 28.7 | 0.00 | 0.00 | 0.00 | 74 | 873.9 |
| 20260904202840 | 62 | 210 | 19.1 | 29.5 | 0.00 | 0.00 | 0.00 | 74 | 873.9 |
| 20260904202640 | 62 | 211 | 18.2 | 29.5 | 0.00 | 0.00 | 0.00 | 74 | 873.9 |
| 20260904202440 | 62 | 206 | 18.2 | 29.5 | 0.00 | 0.00 | 0.00 | 74 | 873.9 |
| 20260904202240 | 62 | 206 | 19.1 | 32.2 | 0.00 | 0.00 | 0.00 | 74 | 873.8 |
| 20260904201840 | 62 | 213 | 19.1 | 28.7 | 0.00 | 0.00 | 0.00 | 74 | 873.8 |
| 20260904201638 | 62 | 210 | 20.0 | 30.4 | 0.00 | 0.00 | 0.00 | 75 | 873.8 |
| 20260904201438 | 62 | 213 | 21.7 | 30.4 | 0.00 | 0.00 | 0.00 | 75 | 873.8 |
| 20260904201238 | 62 | 212 | 20.9 | 27.8 | 0.00 | 0.00 | 0.00 | 75 | 873.8 |
| 20260904201036 | 62 | 207 | 20.9 | 25.2 | 0.00 | 0.00 | 0.00 | 75 | 873.9 |
| 20260904200836 | 62 | 205 | 19.1 | 29.5 | 0.00 | 0.00 | 0.00 | 75 | 873.8 |
| 20260904200636 | 62 | 207 | 17.4 | 26.1 | 0.00 | 0.00 | 0.00 | 75 | 873.9 |
| 20260904200436 | 62 | 204 | 19.1 | 28.7 | 0.00 | 0.00 | 0.00 | 75 | 873.9 |
| 20260904200236 | 62 | 203 | 20.0 | 28.7 | 0.00 | 0.00 | 0.00 | 75 | 873.9 |
| 20260904200036 | 62 | 209 | 18.2 | 34.8 | 0.00 | 0.00 | 0.00 | 75 | 874.0 |
| 20260904195836 | 62 | 207 | 18.2 | 34.8 | 0.00 | 0.00 | 0.00 | 75 | 874.2 |
| 20260904195636 | 62 | 211 | 18.2 | 26.9 | 0.00 | 0.00 | 0.00 | 75 | 874.3 |
| 20260904195436 | 62 | 208 | 19.1 | 28.7 | 0.00 | 0.00 | 0.00 | 75 | 874.3 |